Other Public Products
Issued by NWS Grand Forks, ND

Home | Current Version | Previous Version | Graphics & Text | Print | Product List | Glossary On
Versions: 1 2 3 4 5 6 7 8 9 10 11 12 13 14 15 16 17 18 19 20 21 22 23 24 25 26 27 28 29 30 31 32 33 34 35 36 37 38 39 40 41 42 43 44 45 46 47 48 49 50
000
FPUS83 KFGF 310810
OPUFGF
PRAIRIE TO PINES WEATHER ROUNDUP
NATIONAL WEATHER SERVICE EASTERN NORTH DAKOTA/GRAND FORKS ND
300 AM CDT MON AUG 31 2015

 **SATELLITE DATA USED TO AUGMENT SKY COVER AT AUTOMATED STATIONS**
 *****  WEATHER ACROSS EASTERN NORTH DAKOTA  *****

CITY           SKY/WX    TMP DP  RH WIND       PRES   REMARKS
GRAND FORKS    CLEAR     69  65  86 S14       29.64F
GRAND FORKS AF CLEAR     69  66  90 S10       29.64F
GRAND CITY NWS   N/A     68 N/A N/A S9          N/A
BUXTON         NOT AVBL
DEVILS LAKE    PTCLDY    72  64  78 S3        29.62S
FARGO          CLEAR     68  60  75 S16G25    29.69F
WAHPETON ARPT  SUNNY     63  57  82 SE12      29.74F
$$

 *****  WEATHER ACROSS CENTRAL AND WESTERN NORTH DAKOTA  *****

CITY           SKY/WX    TMP DP  RH WIND       PRES   REMARKS
JAMESTOWN      CLEAR     68  65  90 S17       29.65F
BISMARCK       CLOUDY    71  61  70 SE6       29.62S HAZE
MINOT          CLOUDY    65  54  67 SW7       29.70R
MINOT AFB      CLOUDY    64  62  92 CALM      29.69F
GARRISON         N/A     66  54  65 N14       29.68F
WILLISTON      LGT RAIN  64  58  80 W12       29.73R
DICKINSON      CLOUDY    67  50  54 E10       29.66F
HETTINGER      MOCLDY    67  50  54 N16       29.70F
$$

 *****  OTHER OBSERVATIONS NORTHEAST NORTH DAKOTA  *****

CITY           SKY/WX    TMP DP  RH WIND       PRES   REMARKS
WALHALLA       FAIR      72  72 100 MISG      29.60F
LANGDON        FAIR      66  66 100 S8        29.64F
CAVALIER       FAIR      72  68  88 S8        29.61F
GRAFTON        FAIR      70  70 100 S12       29.64S
CANDO          NOT AVBL
FORT TOTTEN      N/A     69  68  96 S7        29.95
ROLLA          FAIR      64  55  72 N8        29.67F
RUGBY          FAIR      64  64 100 W9        29.71R FOG
 ***** THE ABOVE OBSERVATIONS ARE NON NWS ARE NOT QUALITY
        CONTROLLED AND MAY MIS-REPORT RAIN FOR SNOW...
$$

 *****  OTHER OBSERVATIONS SOUTHEAST NORTH DAKOTA *****

CITY           SKY/WX    TMP DP  RH WIND       PRES   REMARKS
COOPERSTOWN    NOT AVBL
VALLEY CITY    PTSUNNY   68  68 100 S16       29.67S
OAKES            N/A     68  68 100 S18       29.69F
GWINNER        FAIR      70  63  78 S18       29.70S
SHEYENNE NWR     N/A     63  61  93 S5        29.95S
BUFFALO        NOT AVBL
WYNDMERE         N/A     64  61  88 S7          N/A
 ***** THE ABOVE OBSERVATIONS ARE NON NWS ARE NOT QUALITY
       CONTROLLED AND MAY MIS-REPORT RAIN FOR SNOW...
$$

  *****  WEATHER ACROSS NORTHERN MINNESOTA  *****

CITY           SKY/WX    TMP DP  RH WIND       PRES   REMARKS
FLAG ISLAND    CLEAR     68  66  94 S12       29.67F
WARROAD        CLEAR     70  64  83 S7        29.69S
ROSEAU         CLEAR     70  64  83 S12       29.68S
HALLOCK        CLEAR     72  66  83 S15       29.63F
THF RVR FALLS  PTCLDY   N/A N/A N/A S9        29.69S
HALSTAD        NOT AVBL
FOSSTON        CLEAR     64  55  72 S9        29.74S
BAUDETTE       PTCLDY    66  63  90 S6        29.72S
WASKISH        PTCLDY    70  63  78 S9        29.74F
CROOKSTON      PTCLDY    70  63  78 S15       29.69S
$$
  *****  WEATHER ACROSS CENTRAL AND WEST MINNESOTA  *****

CITY           SKY/WX    TMP DP  RH WIND       PRES   REMARKS
BEMIDJI        CLEAR     66  61  82 S10       29.78S
PARK RAPIDS      N/A     66  61  84 S9        29.81S
WADENA         CLEAR     64  61  88 S6        29.81F
DETROIT LAKES  CLEAR     66  59  77 S10       29.79S
MOORHEAD       CLEAR     66  61  82 S18       29.72S
FERGUS FALLS   CLEAR     64  61  88 S13       29.78S
ELBOW LAKE     FAIR      64  61  91 S17G24    29.80S
MORRIS MN      PTCLDY    63  63 100 SE9       29.81S FOG
STAPLES        PTCLDY    64  63  94 S9        29.83F
WHEATON        CLEAR     63  57  82 SE12G17   29.78S
$$
  *****  WEATHER ELSEWHERE ACROSS MINNESOTA  *****

CITY           SKY/WX    TMP DP  RH WIND       PRES   REMARKS
DULUTH         MOCLDY    66  64  93 SW13      29.89F
INTRNTL FALLS  MOCLDY    66  64  93 VRB3      29.77S
ELY            CLEAR     66  63  88 SW7       29.87R
CLOQUET        CLOUDY    66  63  88 S10       29.89S
BRAINERD       PTCLDY    65  63  93 S9        29.86F
HIBBING        CLOUDY    65  63  93 S6        29.86S
ALEXANDRIA     CLEAR     65  62  90 S12       29.85F
SAINT CLOUD    CLOUDY    65  64  97 S8        29.89F FOG
MINNEAPOLIS    MOCLDY    65  63  93 SE6       29.93F
$$

  *****  WEATHER ACROSS SOUTH DAKOTA  *****

CITY           SKY/WX    TMP DP  RH WIND       PRES   REMARKS
SIOUX FALLS    PTCLDY    66  64  93 S10       29.90S
BROOKINGS      CLEAR     64  63  94 S13       29.89F
WATERTOWN      CLEAR     65  62  90 S10       29.83S
HURON          CLEAR     66  64  93 S13       29.79S
SISSETON         N/A     72  59  63 S17G25    29.73F
ABERDEEN       CLEAR     68  63  84 S16G25    29.72F
MITCHELL       CLEAR     67  65  93 S12       29.83S
PIERRE         PTCLDY    71  60  68 SE14      29.69F
MOBRIDGE       CLOUDY    74  61  63 S13       29.61F
RAPID CITY     MOCLDY    74  51  44 SW7       29.77F
$$

  *****  SOME WEATHER IN NEARBY STATES *****

CITY           SKY/WX    TMP DP  RH WIND       PRES   REMARKS
GLASGOW MT     LGT RAIN  57  52  83 N9        29.78F
GREAT FALLS MT CLEAR     52  32  46 S14       29.92S
CHEYENNE WY    CLOUDY    72  44  36 W9        30.06S
SCOTTSBLUFF NE MOCLDY    71  54  54 CALM      29.89F
OMAHA NE       PTCLDY    66  65  96 CALM      29.95F
DES MOINES IA  CLEAR     70  66  87 SE8       29.97F
DAVENPORT IA   CLEAR     62  61  96 E3        30.02S FOG
CHICAGO IL     FAIR      63  63 100 CALM      30.03S FOG
EAU CLAIRE WI  CLEAR     62  60  93 S5        29.97S
LA CROSSE WI   MOCLDY    63  62  97 S6        30.00S FOG
$$

  *****  SOME NATIONAL WEATHER *****

CITY           SKY/WX    TMP DP  RH WIND       PRES   REMARKS
LA GUARDIA NY  CLOUDY    78  66  66 SW8       30.00S
RALEIGH NC     CLOUDY    71  67  87 CALM      30.11F
ATLANTA GA     DRIZZLE   67  65  93 E9        30.09R FOG
NEW ORLEANS LA PTCLDY    77  69  76 CALM      30.00F
OKLAHOMA CITY  PTCLDY    71  67  87 SE6       29.94F
ALBUQUERQUE NM PTCLDY    75  48  38 NW7       30.14S
SALT LAKE CITY MOCLDY    69  43  38 N8        30.00R
LOS ANGELES CA PTCLDY    71  65  81 VRB5      29.85S
BOISE ID       CLEAR     60  43  53 NW6       30.04R
SEATTLE WA     CLOUDY    62  50  64 S12G20    30.00F
$$

*** WEATHER ACROSS MANITOBA...SASKATCHEWAN AND ONTARIO ***
                ***ONTARIO***

CITY           SKY/WX    TMP DP  RH WIND       PRES   REMARKS
GERALDTON      NOT AVBL
THUNDER BAY    PTCLDY    57  57 100 NE3       29.85S
SIOUX LOOKOUT  MOCLDY    68  66  94 S8        29.76R
TORONTO        CLEAR     66  63  88 W5        30.00S
BIG TROUT LK   CLOUDY    50  48  93 E8        29.83R
PICKLE LAKE    NOT AVBL
DRYDEN         CLEAR     68  66  94 S10       29.75S
KENORA         PTCLDY    70  66  88 S9        29.70F
$$
                *** MANITOBA***

CITY           SKY/WX    TMP DP  RH WIND       PRES   REMARKS
BRANDON        MOCLDY    59  55  88 NW8       29.63F
DAUPHIN        PTCLDY    64  54  68 SW7       29.62R
ISLAND LAKE    CLOUDY    63  59  88 E8G22     29.57F
PILOT MOUND      N/A     64  61  88 W5          N/A
THE PAS        FOG       61  61 100 SE9       29.53F VSB 1
THOMPSON       CLOUDY    55  55 100 SE5       29.59F
WINNIPEG       PTCLDY    72  68  88 S8        29.59S
LYNN LAKE      CLOUDY    57  55  94 MISG      29.52F FOG
CHURCHILL      LGT RAIN  46  45  93 SE20G26   29.79F
$$
                ***SASKATCHEWAN***

CITY           SKY/WX    TMP DP  RH WIND       PRES   REMARKS
ESTEVAN        CLOUDY    59  54  82 W8        29.69F
KINDERSLEY     PTCLDY    55  39  54 SW13G21   29.57R
LLOYDMINSTER   CLEAR     54  45  71 W6        29.49S
PRINCE ALBERT  MOCLDY    55  48  76 SW8       29.50S
REGINA         LGT RAIN  61  55  82 W20G31    29.69R
YORKTON        CLEAR     61  52  72 S8        29.62F


USA.gov is the U.S. government's official web portal to all federal, state and local government web resources and services.